GW6381 Weather Reports


Display with metric or nautical units.
time (UTC)temp
F
wind
direction
speed
MPH
gust
MPH
rain 1hr
in
rain 24hr
in
rain mn
in
humidity
%
barometer
mb
20260510085508 50 150 1.0 3.0 0.00 0.00 0.00 87 1008.0
20260510085009 51 181 0.0 2.0 0.00 0.00 0.00 87 1007.8
20260510084512 51 269 0.0 2.0 0.00 0.00 0.00 87 1007.9
20260510084007 51 330 0.0 2.0 0.00 0.00 0.00 87 1007.8
20260510083505 51 213 0.0 3.0 0.00 0.00 0.00 86 1007.8
20260510083017 51 180 0.0 3.0 0.00 0.00 0.00 86 1007.8
20260510082506 51 134 0.0 4.0 0.00 0.00 0.00 86 1007.6
20260510082005 51 177 0.0 4.0 0.00 0.00 0.00 86 1007.4
20260510081524 52 103 0.0 3.0 0.00 0.00 0.00 85 1007.6
20260510081010 52 141 0.0 4.0 0.00 0.00 0.00 85 1007.7
20260510080510 52 103 1.0 7.0 0.00 0.00 0.00 85 1007.7
20260510080023 52 146 2.0 7.0 0.00 0.00 0.00 85 1007.9
20260510075509 52 134 1.0 5.0 0.00 0.00 0.00 84 1007.9
20260510075010 52 121 2.0 5.0 0.00 0.00 0.00 84 1008.0
20260510074527 52 150 1.0 7.0 0.00 0.00 0.00 84 1008.0
20260510074010 52 152 2.0 7.0 0.00 0.00 0.00 84 1008.1
20260510073510 52 331 1.0 6.0 0.00 0.00 0.00 84 1008.2
20260510073014 52 113 1.0 6.0 0.00 0.00 0.00 84 1007.8
20260510072505 52 151 1.0 6.0 0.00 0.00 0.00 84 1007.7
20260510072008 52 192 1.0 6.0 0.00 0.00 0.00 84 1007.6
20260510071532 52 158 2.0 5.0 0.00 0.00 0.00 83 1007.6
20260510071005 52 148 2.0 6.0 0.00 0.00 0.00 83 1007.6
20260510070510 53 117 2.0 6.0 0.00 0.00 0.00 83 1007.5
20260510070022 53 148 1.0 5.0 0.00 0.00 0.00 83 1007.5
20260510065503 53 120 2.0 5.0 0.00 0.00 0.00 82 1007.8
20260510065003 53 118 2.0 5.0 0.00 0.00 0.00 82 1007.8
20260510064508 53 126 2.0 9.0 0.00 0.00 0.00 82 1008.0
20260510064003 53 148 1.0 9.0 0.00 0.00 0.00 82 1007.8
20260510063506 53 158 1.0 7.0 0.00 0.00 0.00 82 1007.8
20260510063013 53 115 2.0 6.0 0.00 0.00 0.00 82 1007.9
20260510062508 53 96 1.0 4.0 0.00 0.00 0.00 82 1007.8
20260510062007 52 214 1.0 5.0 0.00 0.00 0.00 82 1007.8
20260510061534 52 158 1.0 5.0 0.00 0.00 0.00 82 1007.8
20260510061007 52 130 1.0 6.0 0.00 0.00 0.00 82 1007.8
20260510060507 52 129 3.0 6.0 0.00 0.00 0.00 82 1007.8
20260510060005 52 193 1.0 6.0 0.00 0.00 0.00 82 1007.7
20260510055503 52 129 1.0 5.0 0.00 0.00 0.00 82 1007.8
20260510055004 52 146 1.0 5.0 0.00 0.00 0.00 82 1007.8
20260510054507 52 132 2.0 5.0 0.00 0.00 0.00 81 1007.8
20260510054003 52 104 1.0 6.0 0.00 0.00 0.00 81 1007.8
20260510053503 52 109 3.0 7.0 0.00 0.00 0.00 81 1007.8
20260510053009 52 129 3.0 7.0 0.00 0.00 0.00 81 1007.8
20260510052508 52 160 2.0 5.0 0.00 0.00 0.00 81 1007.8
20260510052007 52 217 2.0 7.0 0.00 0.00 0.00 81 1007.9
20260510051514 52 127 3.0 7.0 0.00 0.00 0.00 81 1007.8
20260510051003 52 187 2.0 7.0 0.00 0.00 0.00 81 1007.8
20260510050508 52 129 3.0 7.0 0.00 0.00 0.00 81 1007.8
20260510050015 52 114 2.0 7.0 0.00 0.00 0.00 81 1007.6
20260510045508 52 131 2.0 6.0 0.00 0.00 0.00 81 1007.5
20260510045011 52 65 2.0 6.0 0.00 0.00 0.00 81 1007.5
20260510044504 52 87 1.0 6.0 0.00 0.00 0.00 81 1007.6
20260510044004 52 148 1.0 7.0 0.00 0.00 0.00 80 1007.6
20260510043506 52 91 3.0 7.0 0.00 0.00 0.00 80 1007.6
20260510043013 52 127 1.0 5.0 0.00 0.00 0.00 80 1007.7
20260510042503 52 123 1.0 6.0 0.00 0.00 0.00 80 1007.5
20260510042006 52 46 1.0 6.0 0.00 0.00 0.00 80 1007.5
20260510041512 52 94 1.0 6.0 0.00 0.00 0.00 80 1007.5
20260510041004 52 187 2.0 7.0 0.00 0.00 0.00 81 1007.3
20260510040504 51 155 2.0 7.0 0.00 0.00 0.00 82 1007.2
20260510040015 51 153 1.0 7.0 0.00 0.00 0.00 83 1007.2
20260510035507 50 143 3.0 7.0 0.00 0.00 0.00 84 1007.2
20260510035008 50 219 2.0 7.0 0.00 0.00 0.00 85 1007.1
20260510034522 49 330 0.0 3.0 0.00 0.00 0.00 85 1007.2
20260510034011 49 272 0.0 2.0 0.00 0.00 0.00 85 1007.4
20260510033508 49 273 0.0 2.0 0.00 0.00 0.00 85 1007.6
20260510033004 49 129 1.0 2.0 0.00 0.00 0.00 85 1007.7
20260510032504 49 135 1.0 3.0 0.00 0.00 0.00 85 1007.8
20260510032004 49 172 1.0 3.0 0.00 0.00 0.00 85 1007.8
20260510031515 50 304 0.0 2.0 0.00 0.00 0.00 85 1007.9
20260510031004 50 131 0.0 3.0 0.00 0.00 0.00 85 1008.0
20260510030504 50 113 1.0 3.0 0.00 0.00 0.00 85 1008.0
20260510030019 50 161 0.0 2.0 0.00 0.00 0.00 85 1007.9
20260510025504 50 330 0.0 1.0 0.00 0.00 0.00 85 1008.0
20260510025006 50 127 0.0 1.0 0.00 0.00 0.00 84 1008.0
20260510024533 50 127 0.0 1.0 0.00 0.00 0.00 84 1008.1
20260510024006 50 127 0.0 1.0 0.00 0.00 0.00 84 1008.1
20260510023506 51 127 0.0 1.0 0.00 0.00 0.00 84 1008.1
20260510023019 50 141 0.0 5.0 0.00 0.00 0.00 84 1008.1
20260510022508 50 148 1.0 5.0 0.00 0.00 0.00 84 1008.1
20260510022008 50 214 1.0 4.0 0.00 0.00 0.00 84 1008.0
20260510021507 50 141 0.0 4.0 0.00 0.00 0.00 84 1008.0
20260510021003 50 165 1.0 4.0 0.00 0.00 0.00 84 1007.9
20260510020504 50 129 0.0 5.0 0.00 0.00 0.00 84 1007.8
20260510020012 51 88 1.0 5.0 0.00 0.00 0.00 84 1008.0
20260510015504 50 124 2.0 5.0 0.00 0.00 0.00 84 1008.2
20260510015004 50 248 0.0 3.0 0.00 0.00 0.00 84 1008.3
20260510014514 50 174 1.0 3.0 0.00 0.00 0.00 84 1008.3
20260510014007 50 178 0.0 2.0 0.00 0.00 0.00 84 1008.4
20260510013507 50 144 0.0 2.0 0.00 0.00 0.00 84 1008.2
20260510013020 50 251 0.0 3.0 0.00 0.00 0.00 84 1008.3
20260510012506 50 146 0.0 3.0 0.00 0.00 0.00 84 1008.4
20260510012009 50 143 1.0 3.0 0.00 0.00 0.00 84 1008.5
20260510011534 50 231 0.0 2.0 0.00 0.00 0.00 84 1008.5
20260510011009 50 153 0.0 2.0 0.00 0.00 0.00 84 1008.4
20260510010506 50 95 0.0 2.0 0.00 0.00 0.00 84 1008.6
20260510010008 50 134 1.0 3.0 0.00 0.00 0.00 84 1008.5
20260510005504 50 127 1.0 3.0 0.00 0.00 0.00 84 1008.5
20260510005004 50 148 1.0 3.0 0.00 0.00 0.00 84 1008.5
20260510004512 50 124 0.0 3.0 0.00 0.00 0.00 84 1008.7
20260510004004 50 143 1.0 2.0 0.00 0.00 0.00 84 1008.7
20260510003504 50 119 0.0 2.0 0.00 0.00 0.00 84 1008.8
20260510003043 50 162 0.0 2.0 0.00 0.00 0.00 84 1008.8
20260510002508 50 160 1.0 3.0 0.00 0.00 0.00 84 1008.8
20260510002008 50 139 1.0 3.0 0.00 0.00 0.00 84 1008.8
20260510001526 50 148 1.0 3.0 0.00 0.00 0.00 84 1008.7
20260510001009 50 127 0.0 2.0 0.00 0.00 0.00 84 1008.7
20260510000507 50 128 0.0 2.0 0.00 0.00 0.00 83 1008.7
20260510000023 50 164 0.0 2.0 0.00 0.00 0.00 83 1008.7
20260509235507 51 164 0.0 2.0 0.00 0.00 0.00 83 1008.7
20260509235010 51 133 0.0 2.0 0.00 0.00 0.00 83 1008.8
20260509234528 51 133 0.0 4.0 0.00 0.00 0.00 82 1008.7
20260509234004 51 138 0.0 4.0 0.00 0.00 0.00 82 1008.7
20260509233503 51 243 0.0 4.0 0.00 0.00 0.00 82 1008.7
20260509233021 51 115 0.0 5.0 0.00 0.00 0.00 82 1008.7
20260509232504 51 326 0.0 5.0 0.00 0.00 0.00 82 1008.7
20260509232007 51 150 0.0 5.0 0.00 0.00 0.00 82 1008.7
20260509231529 51 219 1.0 5.0 0.00 0.00 0.00 82 1008.6
20260509231010 52 121 1.0 5.0 0.00 0.00 0.00 82 1008.7
20260509230508 52 113 1.0 5.0 0.00 0.00 0.00 82 1008.7
20260509230030 52 293 1.0 6.0 0.00 0.00 0.00 81 1008.6
20260509225508 52 252 1.0 6.0 0.00 0.00 0.00 81 1008.6
20260509225009 52 353 1.0 5.0 0.00 0.00 0.00 81 1008.6
20260509224526 52 9 0.0 6.0 0.00 0.00 0.00 81 1008.6
20260509224010 52 148 1.0 6.0 0.00 0.00 0.00 80 1008.6
20260509223512 52 150 2.0 8.0 0.00 0.00 0.00 80 1008.5
20260509223012 52 133 0.0 8.0 0.00 0.00 0.00 80 1008.7
20260509222503 52 163 0.0 4.0 0.00 0.00 0.00 80 1008.7
20260509222007 52 136 1.0 4.0 0.00 0.00 0.00 80 1008.7
20260509221517 53 141 2.0 4.0 0.00 0.00 0.00 79 1008.8
20260509221006 53 160 0.0 3.0 0.00 0.00 0.00 79 1008.9
20260509220509 53 137 1.0 3.0 0.00 0.00 0.00 80 1008.8
20260509220020 52 255 0.0 5.0 0.00 0.00 0.00 81 1008.8
20260509215507 52 153 0.0 7.0 0.00 0.00 0.00 81 1008.8
20260509215007 52 167 0.0 7.0 0.00 0.00 0.00 81 1008.8
20260509214524 52 339 1.0 4.0 0.00 0.00 0.00 80 1008.9
20260509214010 52 184 1.0 3.0 0.00 0.00 0.00 80 1009.0
20260509213513 52 153 0.0 3.0 0.00 0.00 0.00 81 1009.0
20260509213026 52 125 0.0 4.0 0.00 0.00 0.00 81 1009.0
20260509212511 51 163 0.0 4.0 0.00 0.00 0.00 81 1009.1
20260509212013 51 161 0.0 3.0 0.00 0.00 0.00 81 1009.1
20260509211516 52 117 1.0 3.0 0.00 0.00 0.00 80 1009.1
20260509211009 52 165 1.0 3.0 0.00 0.00 0.00 80 1009.2
20260509210508 52 132 1.0 3.0 0.00 0.00 0.00 80 1009.2
20260509210023 52 172 1.0 6.0 0.00 0.00 0.00 80 1009.2
20260509205510 52 172 1.0 6.0 0.00 0.00 0.00 80 1009.3
20260509205007 52 135 2.0 5.0 0.00 0.00 0.00 80 1009.4
20260509204522 52 133 1.0 4.0 0.00 0.00 0.00 80 1009.3
20260509204012 52 157 1.0 4.0 0.00 0.00 0.00 79 1009.3
20260509203506 52 160 1.0 3.0 0.00 0.00 0.00 79 1009.4
20260509203007 52 148 0.0 4.0 0.00 0.00 0.00 78 1009.5
20260509202504 53 103 1.0 4.0 0.00 0.00 0.00 77 1009.6
20260509202005 53 138 0.0 6.0 0.00 0.00 0.00 77 1009.5
20260509201513 53 120 1.0 6.0 0.00 0.00 0.00 76 1009.5
20260509201008 54 146 1.0 4.0 0.00 0.00 0.00 75 1009.4
20260509200504 54 187 1.0 5.0 0.00 0.00 0.00 74 1009.4
20260509200022 54 174 1.0 5.0 0.00 0.00 0.00 74 1009.5
20260509195511 54 126 0.0 7.0 0.00 0.00 0.00 75 1009.6
20260509195007 54 41 2.0 7.0 0.00 0.00 0.00 73 1009.5
20260509194526 54 44 1.0 6.0 0.00 0.00 0.00 75 1009.6
20260509194008 53 117 1.0 6.0 0.00 0.00 0.00 75 1009.7
20260509193509 53 122 1.0 3.0 0.00 0.00 0.00 75 1009.7
20260509193024 52 186 0.0 5.0 0.00 0.00 0.00 75 1009.6
20260509192510 52 161 1.0 5.0 0.00 0.00 0.00 74 1009.7
20260509192010 52 136 0.0 2.0 0.00 0.00 0.00 75 1009.8
20260509191508 52 143 0.0 5.0 0.00 0.00 0.00 75 1009.8
20260509191005 52 201 2.0 5.0 0.00 0.00 0.00 74 1009.7
20260509190506 52 20 1.0 4.0 0.00 0.00 0.00 75 1009.7
20260509190016 52 139 1.0 4.0 0.00 0.00 0.00 75 1009.8
20260509185507 51 139 1.0 7.0 0.00 0.00 0.00 75 1009.9
20260509185009 51 109 3.0 7.0 0.00 0.00 0.00 73 1010.0
20260509184517 51 154 1.0 6.0 0.00 0.00 0.00 73 1010.1
20260509184011 51 223 1.0 7.0 0.00 0.00 0.00 73 1010.2
20260509183508 51 128 1.0 7.0 0.00 0.00 0.00 72 1010.3
20260509183027 52 245 2.0 5.0 0.00 0.00 0.00 70 1010.4
20260509182507 53 132 2.0 4.0 0.00 0.00 0.00 69 1010.4
20260509182011 53 315 1.0 4.0 0.00 0.00 0.00 69 1010.4
20260509181540 54 319 0.0 5.0 0.00 0.00 0.00 68 1010.3
20260509181014 54 158 2.0 6.0 0.00 0.00 0.00 67 1010.3
20260509180506 54 140 2.0 6.0 0.00 0.00 0.00 67 1010.3
20260509180008 54 106 2.0 7.0 0.00 0.00 0.00 67 1010.3
20260509175507 54 146 2.0 7.0 0.00 0.00 0.00 65 1010.3
20260509175009 54 141 2.0 6.0 0.00 0.00 0.00 65 1010.4
20260509174517 54 309 1.0 9.0 0.00 0.00 0.00 65 1010.5
20260509174009 54 137 2.0 9.0 0.00 0.00 0.00 64 1010.4
20260509173510 54 162 3.0 9.0 0.00 0.00 0.00 63 1010.4
20260509173024 54 210 2.0 7.0 0.00 0.00 0.00 64 1010.4
20260509172509 54 160 2.0 5.0 0.00 0.00 0.00 63 1010.5
20260509172009 54 101 1.0 7.0 0.00 0.00 0.00 61 1010.4
20260509171526 54 25 2.0 8.0 0.00 0.00 0.00 60 1010.5
20260509171009 54 110 3.0 9.0 0.00 0.00 0.00 59 1010.4
20260509170508 55 328 2.0 9.0 0.00 0.00 0.00 60 1010.4
20260509170026 55 194 2.0 8.0 0.00 0.00 0.00 60 1010.5
20260509165506 55 78 3.0 8.0 0.00 0.00 0.00 60 1010.5
20260509165006 55 146 2.0 6.0 0.00 0.00 0.00 60 1010.6
20260509164513 55 94 1.0 8.0 0.00 0.00 0.00 60 1010.6
20260509164007 55 130 2.0 8.0 0.00 0.00 0.00 58 1010.6
20260509163510 55 251 2.0 8.0 0.00 0.00 0.00 58 1010.7
20260509163027 55 224 2.0 8.0 0.00 0.00 0.00 57 1010.7
20260509162510 56 124 1.0 4.0 0.00 0.00 0.00 56 1010.8
20260509162008 56 146 1.0 7.0 0.00 0.00 0.00 55 1010.8
20260509161523 56 186 2.0 7.0 0.00 0.00 0.00 54 1011.0
20260509161011 57 109 1.0 5.0 0.00 0.00 0.00 53 1011.0
20260509160513 57 165 2.0 5.0 0.00 0.00 0.00 52 1011.1
20260509160025 57 335 2.0 8.0 0.00 0.00 0.00 50 1011.2
20260509155507 57 210 1.0 8.0 0.00 0.00 0.00 51 1011.2
20260509155010 58 96 2.0 8.0 0.00 0.00 0.00 50 1011.2
20260509154527 58 341 1.0 7.0 0.00 0.00 0.00 51 1011.3
20260509154013 58 231 2.0 5.0 0.00 0.00 0.00 51 1011.4
20260509153507 58 183 1.0 7.0 0.00 0.00 0.00 52 1011.4
20260509153014 58 179 2.0 7.0 0.00 0.00 0.00 52 1011.6
20260509152508 58 53 1.0 4.0 0.00 0.00 0.00 50 1011.7
20260509152010 58 340 1.0 3.0 0.00 0.00 0.00 52 1011.7
20260509151519 57 350 0.0 4.0 0.00 0.00 0.00 51 1011.7
20260509151007 57 142 1.0 4.0 0.00 0.00 0.00 50 1011.8
20260509150510 57 143 0.0 3.0 0.00 0.00 0.00 50 1011.7
20260509150022 57 142 1.0 3.0 0.00 0.00 0.00 50 1011.8
20260509145513 57 202 1.0 3.0 0.00 0.00 0.00 49 1011.8
20260509145008 57 56 1.0 4.0 0.00 0.00 0.00 52 1011.8
20260509144534 56 208 1.0 4.0 0.00 0.00 0.00 52 1011.8
20260509144010 56 152 1.0 4.0 0.00 0.00 0.00 51 1011.9
20260509143508 56 151 2.0 5.0 0.00 0.00 0.00 52 1011.9
20260509143026 56 143 2.0 5.0 0.00 0.00 0.00 52 1012.0
20260509142508 56 114 1.0 5.0 0.00 0.00 0.00 52 1012.0
20260509142008 56 145 2.0 5.0 0.00 0.00 0.00 51 1012.0
20260509141516 55 301 1.0 5.0 0.00 0.00 0.00 53 1012.1
20260509141014 55 94 1.0 3.0 0.00 0.00 0.00 54 1012.0
20260509140510 55 83 1.0 3.0 0.00 0.00 0.00 55 1012.0
20260509140021 54 246 1.0 3.0 0.00 0.00 0.00 55 1012.1
20260509135509 54 128 0.0 5.0 0.00 0.00 0.00 58 1012.2
20260509135013 54 169 0.0 5.0 0.00 0.00 0.00 58 1012.1
20260509134521 53 207 0.0 2.0 0.00 0.00 0.00 59 1012.2
20260509134007 53 167 1.0 5.0 0.00 0.00 0.00 60 1012.3
20260509133507 52 330 0.0 5.0 0.00 0.00 0.00 62 1011.9
20260509133029 51 131 2.0 5.0 0.00 0.00 0.00 61 1011.8
20260509132510 51 207 1.0 4.0 0.00 0.00 0.00 62 1011.9
20260509132013 50 344 1.0 2.0 0.00 0.00 0.00 64 1012.0
20260509131525 49 158 0.0 5.0 0.00 0.00 0.00 66 1012.1
20260509131011 49 121 1.0 5.0 0.00 0.00 0.00 64 1012.1
20260509130506 49 136 0.0 4.0 0.00 0.00 0.00 66 1012.2
20260509130020 48 139 2.0 4.0 0.00 0.00 0.00 65 1012.3
20260509125506 48 229 1.0 4.0 0.00 0.00 0.00 67 1012.3
20260509125007 47 355 1.0 3.0 0.00 0.00 0.00 67 1012.3
20260509124524 47 170 1.0 3.0 0.00 0.00 0.00 67 1012.5
20260509124007 47 59 1.0 3.0 0.00 0.00 0.00 68 1012.5
20260509123507 47 26 1.0 3.0 0.00 0.00 0.00 68 1012.6
20260509123025 46 293 0.0 4.0 0.00 0.00 0.00 69 1012.5
20260509122512 46 187 1.0 4.0 0.00 0.00 0.00 69 1012.5
20260509122009 46 165 0.0 5.0 0.00 0.00 0.00 69 1012.4
20260509121518 45 173 1.0 5.0 0.00 0.00 0.00 68 1012.5
20260509121007 45 143 1.0 4.0 0.00 0.00 0.00 68 1012.5
20260509120507 44 290 1.0 4.0 0.00 0.00 0.00 69 1012.5
20260509120017 44 257 1.0 4.0 0.00 0.00 0.00 70 1012.6
20260509115505 44 157 0.0 5.0 0.00 0.00 0.00 71 1012.6
20260509115006 43 229 0.0 5.0 0.00 0.00 0.00 71 1012.7
20260509114522 43 157 1.0 4.0 0.00 0.00 0.00 71 1012.6
20260509114007 43 156 1.0 4.0 0.00 0.00 0.00 72 1012.7
20260509113504 42 321 1.0 3.0 0.00 0.00 0.00 73 1012.6
20260509113005 42 211 1.0 3.0 0.00 0.00 0.00 75 1012.7
20260509112504 41 146 1.0 4.0 0.00 0.00 0.00 76 1012.7
20260509112003 40 134 1.0 4.0 0.00 0.00 0.00 78 1012.7
20260509111508 39 181 0.0 2.0 0.00 0.00 0.00 82 1012.8
20260509111004 38 160 0.0 0.0 0.00 0.00 0.00 85 1012.8
20260509110505 37 151 0.0 1.0 0.00 0.00 0.00 86 1012.9
20260509110015 36 151 0.0 1.0 0.00 0.00 0.00 88 1012.9
20260509105508 36 149 0.0 1.0 0.00 0.00 0.00 90 1012.9
20260509105007 35 120 0.0 1.0 0.00 0.00 0.00 93 1012.9
20260509104529 34 169 0.0 0.0 0.00 0.00 0.00 93 1012.9
20260509104006 33 169 0.0 0.0 0.00 0.00 0.00 92 1012.9
20260509103507 32 169 0.0 0.0 0.00 0.00 0.00 92 1012.9
20260509103021 31 169 0.0 0.0 0.00 0.00 0.00 91 1012.8
20260509102510 31 169 0.0 0.0 0.00 0.00 0.00 91 1012.7
20260509102004 31 169 0.0 0.0 0.00 0.00 0.00 91 1012.7
20260509101507 31 169 0.0 0.0 0.00 0.00 0.00 91 1012.5
20260509101007 31 169 0.0 0.0 0.00 0.00 0.00 91 1012.6
20260509100503 30 169 0.0 0.0 0.00 0.00 0.00 91 1012.7
20260509100009 30 169 0.0 0.0 0.00 0.00 0.00 90 1012.7
20260509095506 30 169 0.0 0.0 0.00 0.00 0.00 90 1012.6
20260509095005 30 169 0.0 0.0 0.00 0.00 0.00 90 1012.4
20260509094514 30 169 0.0 0.0 0.00 0.00 0.00 89 1012.2
20260509094006 30 169 0.0 0.0 0.00 0.00 0.00 89 1012.2
20260509093506 30 169 0.0 0.0 0.00 0.00 0.00 89 1012.2
20260509093017 30 169 0.0 0.0 0.00 0.00 0.00 89 1012.3
20260509092507 31 169 0.0 0.0 0.00 0.00 0.00 89 1012.3
20260509092008 31 169 0.0 0.0 0.00 0.00 0.00 89 1012.1
20260509091524 31 169 0.0 0.0 0.00 0.00 0.00 89 1012.2
20260509091013 31 169 0.0 0.0 0.00 0.00 0.00 89 1012.2
20260509090511 31 169 0.0 0.0 0.00 0.00 0.00 89 1012.3
20260509090007 31 169 0.0 0.0 0.00 0.00 0.00 89 1012.3